Actualité

 

LogoChallengeNewsletter

Challenge du Pays Boulonnais

Voir le règlement complet du Challenge du Pays Boulonnais 2019

Classement aprés 3 épreuves au 31/03/19.

La cagnotte "Chronopale 2019" à partager entre tous les coureurs classés sur les 11 épreuves sera de 1 200€

Aprés 3 épreuves vous êtes 50 à pouvoir vous partager la cagnotte.

Date des épreuves

10/02/19  Les 6 Miles de Pont de Briques

??/??/19  Semi Marathon de la Terre des 2 Caps à Wacquinghem (Sauf pour les cadets)

23/03/19 Les Foulées Guinoises 10 Km

24/03/19  Foulées du Printemps à Nesles 10 Km

01/05/19  La Ronde du Fort de l'Heurt à Le Portel 10 Km (nature plage et falaise)

09/06/19  La Win Run à Wimereux 10 Km

30/06/19  Boulogne 10 Km

13/10/19  Les Foulées de la Santé à Saint Martin 10 Km

17/11/19 Les Foulées Outreloises à Outreau  10 Km       

24/11/19  Les Foulées de la Sainte Catherine à Menneville 10 Km

??/??/19  Rues & Run Desvroises 10 Km

 

Nous contacter

Chronopale
59 Rue Léonce TOBO
62200 Boulogne sur mer
06 60 17 22 13
contact@chronopale.fr
www.chronopale.fr

 

30Km

30 KM TRAIL VALLEE DE LA COURSE du 07/04/19 (Reelle 29,5)
Rang Dossard Nom Prénom Temps Cat Rang Cat Ecart Ecart Cat Club Vitesse Km/h Temps au Km
1 40 SCHRAMM Cedric 02:18:29 V1M 1 00:00:00 00:00:00 . 12,781 04:42
2 103 LOEUILLIEUX Stephane 02:22:31 V2M 1 00:04:02 00:00:00 Team run opale 12,420 04:50
3 127 LOEUILLIEUX Pierre 02:22:31 SEM 1 00:04:02 00:00:00 Usa triathlon 12,420 04:50
4 166 WACOGNE Michael 02:23:20 V1M 2 00:04:51 00:04:51 . 12,349 04:52
5 155 MASSET Philippe 02:25:26 V2M 2 00:06:57 00:02:55 . 12,171 04:56
6 171 LEVEL Fabien 02:25:58 SEM 2 00:07:29 00:03:27 TOUQUET TRAIL NATURE 12,126 04:57
7 114 LEDOUX Geoffrey 02:26:22 SEM 3 00:07:53 00:03:51 Louch’angeles 12,093 04:58
8 101 MANIEZ Sylvain 02:28:21 V1M 3 00:09:52 00:09:52 Sport evasion 2 caps 11,931 05:02
9 22 QUANDALLE Thomas 02:29:02 SEM 4 00:10:33 00:06:31 . 11,877 05:03
10 143 HONVAULT Aurelien 02:30:11 SEM 5 00:11:42 00:07:40 . 11,786 05:05
11 160 COURONNEL Jerome 02:31:30 V1M 4 00:13:01 00:13:01 . 11,683 05:08
12 170 GOURDIN ERIC 02:31:57 V1M 5 00:13:28 00:13:28 . 11,649 05:09
13 55 FOURNIER Vincent 02:34:41 V1M 6 00:16:12 00:16:12 Team trail gravelines 11,443 05:15
14 161 SOUDAIN Nicolas 02:35:12 SEM 6 00:16:43 00:12:41 . 11,405 05:16
15 61 DUFLOER Benoit 02:35:28 V2M 3 00:16:59 00:12:57 Team trail gravelines 11,385 05:16
16 53 LECOINTRE Jeremy 02:35:41 SEM 7 00:17:12 00:13:10 Ch'tis coureurs fmanands de bavonchove 11,369 05:17
17 76 PECQUET Franck 02:36:35 V2M 4 00:18:06 00:14:04 . 11,304 05:18
18 99 VARLET Honore 02:37:03 SEM 8 00:18:34 00:14:32 . 11,270 05:19
19 9 COUTTE Jocelyn 02:37:14 SEM 9 00:18:45 00:14:43 S/L ASG GAUCHY ATHLETISME 11,257 05:20
20 36 ANDRIEUX Vincent 02:38:13 SEM 10 00:19:44 00:15:42 . 11,187 05:22
21 120 MOUILLIERE Richard 02:39:01 SEM 11 00:20:32 00:16:30 Berck opale sud triathlon 11,131 05:23
22 94 MAQUINGHEN Christophe 02:39:26 V1M 7 00:20:57 00:20:57 . 11,102 05:24
23 104 BATTESTI David 02:40:13 SEM 12 00:21:44 00:17:42 Team trail 11,048 05:26
24 34 BARTIER Gregory 02:41:57 V1M 8 00:23:28 00:23:28 . 10,929 05:29
25 163 BREQUEVILLE Samuel 02:42:23 V1M 9 00:23:54 00:23:54 TOUQUET TRAIL NATURE 10,900 05:30
26 97 DUHAUTOY Benjamin 02:42:40 SEM 13 00:24:11 00:20:09 . 10,881 05:31
27 154 RICHARD Daniel 02:42:59 V3M 1 00:24:30 00:00:00 . 10,860 05:31
28 38 FLEUROT Jeremy 02:43:35 SEM 14 00:25:06 00:21:04 . 10,820 05:33
29 162 MALFOY BRUNO 02:44:07 V2M 5 00:25:38 00:21:36 BOULOGNE ATHLETIQUE CLUB 10,785 05:34
30 98 VASSEUR Dimitri 02:44:29 V1M 10 00:26:00 00:26:00 Cac caloterie 10,761 05:35
31 63 ISAERT Christophe 02:45:06 V1M 11 00:26:37 00:26:37 Team gravelines trail 10,721 05:36
32 33 MILLE Xavier 02:45:12 SEM 15 00:26:43 00:22:41 Uscf 10,714 05:36
33 137 VANMACKELBERG Jerome 02:45:33 SEM 16 00:27:04 00:23:02 . 10,692 05:37
34 128 ANNO Christophe 02:45:44 V1M 12 00:27:15 00:27:15 . 10,680 05:37
35 39 GRIETTE Christophe 02:46:03 V1M 13 00:27:34 00:27:34 . 10,659 05:38
36 131 CHENAL Thomas 02:46:20 V2M 6 00:27:51 00:23:49 . 10,641 05:38
37 70 BRUNELLE Simon 02:46:22 SEM 17 00:27:53 00:23:51 Bezu attitude 10,639 05:38
38 153 FRANCOIS Thomas 02:46:53 SEM 18 00:28:24 00:24:22 . 10,606 05:39
39 59 FLAHAUT Gregory 02:47:20 V1M 14 00:28:51 00:28:51 . 10,578 05:40
40 150 CARON Pierre 02:48:10 V1M 15 00:29:41 00:29:41 . 10,525 05:42
41 57 DRANSART Philippe 02:48:16 SEM 19 00:29:47 00:25:45 . 10,519 05:42
42 95 MODRZEJEWSKI STEPHANE 02:48:17 V1M 16 00:29:48 00:29:48 . 10,518 05:42
43 19 LABRADOR Juan-carlos 02:49:25 V1M 17 00:30:56 00:30:56 Blaringhem trail 10,448 05:45
44 37 PIMENTO Tony 02:50:01 V1M 18 00:31:32 00:31:32 . 10,411 05:46
45 74 DEWALLE Laurent 02:50:20 SEM 20 00:31:51 00:27:49 . 10,391 05:46
46 77 LHOMEL Antoine 02:50:23 SEM 21 00:31:54 00:27:52 . 10,388 05:47
47 112 CARLU Marc 02:51:01 V1M 19 00:32:32 00:32:32 Les coureurs du loup blanc 10,350 05:48
48 157 WITKOWSKI Yoann 02:51:23 SEM 22 00:32:54 00:28:52 Cac la caloterie 10,328 05:49
49 49 VILVANDRE Julien 02:51:53 SEM 23 00:33:24 00:29:22 Tdb team 10,298 05:50
50 174 DUCROCQ CHRISTOPHE 02:52:23 V2M 7 00:33:54 00:29:52 WIMEREUX RUNNING CLUB 10,268 05:51
51 144 LEDOUX Vincent 02:52:30 SEM 24 00:34:01 00:29:59 . 10,261 05:51
52 107 GODART Jean-christophe 02:52:48 V1M 20 00:34:19 00:34:19 Tean trail 10,243 05:51
53 145 SIX Pauline 02:52:48 SEF 1 00:34:19 00:00:00 . 10,243 05:51
54 139 BADON Emmanuel 02:52:58 V1M 21 00:34:29 00:34:29 . 10,233 05:52
55 31 THERY Julien 02:53:09 SEM 25 00:34:40 00:30:38 . 10,222 05:52
56 146 RICHET Jean-claude 02:53:14 SEM 26 00:34:45 00:30:43 . 10,217 05:52
57 126 DELMOTTE Yohann 02:53:37 V1M 22 00:35:08 00:35:08 Omnisports campagne les hesdin 10,195 05:53
58 113 CHEVREAU Dany 02:54:18 V1M 23 00:35:49 00:35:49 . 10,155 05:55
59 134 DEGROOTE Benjamin 02:54:25 SEM 27 00:35:56 00:31:54 . 10,148 05:55
60 158 MAGNIER Tony 02:55:05 SEM 28 00:36:36 00:32:34 . 10,109 05:56
61 87 DEBRUYNE Anthony 02:55:17 SEM 29 00:36:48 00:32:46 Espace club douai 10,098 05:57
62 119 GLACON Bertrand 02:56:25 V2M 8 00:37:56 00:33:54 . 10,033 05:59
63 108 HODIQUE Herve 02:56:34 V1M 24 00:38:05 00:38:05 Team trail 10,025 05:59
64 83 LECIGNE David 02:56:43 V1M 25 00:38:14 00:38:14 . 10,016 05:59
65 106 DEPLECHIN David 02:57:03 V1M 26 00:38:34 00:38:34 Team trail 9,997 06:00
66 69 COUVELARD Joel 02:57:58 SEM 30 00:39:29 00:35:27 Cdl lumbrois 9,946 06:02
67 96 BOUTILLIER Jean-philippe 02:58:10 V2M 9 00:39:41 00:35:39 Serialtraileurs 9,935 06:02
68 124 MARIE Emmanuel 02:58:10 V2M 10 00:39:41 00:35:39 Serialtraileurs 9,935 06:02
69 13 PINTO Kevin 02:58:11 SEM 31 00:39:42 00:35:40 . 9,934 06:02
70 21 MANNESSIEZ Fabien 02:58:59 SEM 32 00:40:30 00:36:28 . 9,889 06:04
71 30 VANCAYZEELE Gauthier 02:59:15 SEM 33 00:40:46 00:36:44 Loups ga'run van belle 9,874 06:05
72 168 ROBERVAL Gautier 02:59:48 SEM 34 00:41:19 00:37:17 . 9,844 06:06
73 132 JOIGNAUX Julien 03:01:06 SEM 35 00:42:37 00:38:35 . 9,774 06:08
74 23 HADRI Sebastien 03:01:07 SEM 36 00:42:38 00:38:36 . 9,773 06:08
75 135 TALPAERT Arthur 03:02:23 V1M 27 00:43:54 00:43:54 . 9,705 06:11
76 172 CARDON CAROLINE 03:02:42 SEF 2 00:44:13 00:09:54 . 9,688 06:12
77 47 MULLIEZ Amaury 03:02:52 V1M 28 00:44:23 00:44:23 . 9,679 06:12
78 90 LARDEY-GOURDEN Thomas 03:03:45 V1M 29 00:45:16 00:45:16 Gmpd 9,633 06:14
79 5 GUILLEMAIN Laurent 03:03:45 SEM 37 00:45:16 00:41:14 Gpmd 9,633 06:14
80 50 PORET Gregory 03:03:47 V1M 30 00:45:18 00:45:18 . 9,631 06:14
81 81 BOURGAIN Mickael 03:04:29 V1M 31 00:46:00 00:46:00 Opale trail nature 9,594 06:15
82 71 LEFEBVRE Stephane 03:04:53 V1M 32 00:46:24 00:46:24 Team ard'run 9,574 06:16
83 41 DINGEON Thierry 03:05:18 V1M 33 00:46:49 00:46:49 . 9,552 06:17
84 110 DEFACHELLE Geoffrey 03:05:31 SEM 38 00:47:02 00:43:00 Team trail 9,541 06:17
85 62 HAUCHART Olivier 03:05:59 V1M 34 00:47:30 00:47:30 . 9,517 06:18
86 11 VANDAELE Jerome 03:06:06 V1M 35 00:47:37 00:47:37 . 9,511 06:19
87 72 CAPPELLE Yann 03:06:13 SEM 39 00:47:44 00:43:42 . 9,505 06:19
88 123 HIBON Sebastien 03:07:54 V1M 36 00:49:25 00:49:25 . 9,420 06:22
89 20 MASSON Stephane 03:08:47 V1M 37 00:50:18 00:50:18 . 9,376 06:24
90 66 DUCLOIE Jerome 03:08:49 V1M 38 00:50:20 00:50:20 . 9,374 06:24
91 75 LAMS Thomas 03:08:50 SEM 40 00:50:21 00:46:19 . 9,373 06:24
92 173 TAVERNE DAMIEN 03:08:58 SEM 41 00:50:29 00:46:27 TOUQUET OPALE ATHLETISME 9,367 06:24
93 14 GUERY Stephane 03:08:59 V1M 39 00:50:30 00:50:30 Kalenji trail 9,366 06:24
94 147 CHOUROT Lucien 03:09:33 V3M 2 00:51:04 00:26:34 Amicale le drapeau 9,338 06:26
95 24 DUBARRY David 03:10:33 V1M 40 00:52:04 00:52:04 Runners en nord 9,289 06:28
96 149 LEURS Ingrid 03:10:35 SEF 3 00:52:06 00:17:47 Rcmdf 9,287 06:28
97 89 LELOROUX Yoann 03:10:57 SEM 42 00:52:28 00:48:26 . 9,269 06:28
98 91 GOSSET Philippe 03:11:06 V3M 3 00:52:37 00:28:07 . 9,262 06:29
99 159 LEFEBVRE Gregory 03:12:26 SEM 43 00:53:57 00:49:55 Team trail opale 9,198 06:31
100 136 BATEMAN Daniel 03:13:23 V1M 41 00:54:54 00:54:54 . 9,153 06:33
101 73 PAUCHET Mathilde 03:13:42 SEF 4 00:55:13 00:20:54 . 9,138 06:34
102 86 VAN DOORSLAER Jean-baptiste 03:14:00 SEM 44 00:55:31 00:51:29 Cac la caloterie 9,124 06:35
103 44 BONNEFOY Amelie 03:14:57 SEF 5 00:56:28 00:22:09 Lille running team 9,079 06:37
104 116 COLIN Kevin 03:15:57 SEM 45 00:57:28 00:53:26 Asud 9,033 06:39
105 117 MAGI Gael 03:16:20 SEM 46 00:57:51 00:53:49 Asud 9,015 06:39
106 122 DEBONGNIE Julien 03:16:50 SEM 47 00:58:21 00:54:19 Rjc 8,992 06:40
107 7 BRIDOUX Xavier 03:17:05 SEM 48 00:58:36 00:54:34 . 8,981 06:41
108 121 FRAPPART Charles 03:17:05 V1M 42 00:58:36 00:58:36 Rjc 8,981 06:41
109 29 FRANCOIS Jerome 03:17:05 V1M 43 00:58:36 00:58:36 . 8,981 06:41
110 12 REY Jennifer 03:17:05 SEF 6 00:58:36 00:24:17 . 8,981 06:41
111 79 SMAGGHE Alexis 03:17:06 SEM 49 00:58:37 00:54:35 Les cop1dabord 8,980 06:41
112 88 DOUCHAIN Romain 03:17:37 SEM 50 00:59:08 00:55:06 Cac la calotterie 8,957 06:42
113 80 LEPRETRE Pierre 03:17:42 SEM 51 00:59:13 00:55:11 . 8,953 06:42
114 115 VASSEUR Ludovic 03:17:45 SEM 52 00:59:16 00:55:14 Asud 8,951 06:42
115 82 GOBERT Bruno 03:17:53 V2M 11 00:59:24 00:55:22 Opale trail nature 8,945 06:42
116 28 MEHADDI Mouloud-anis 03:19:19 SEM 53 01:00:50 00:56:48 . 8,880 06:45
117 60 NOEL Christian 03:20:08 V1M 44 01:01:39 01:01:39 . 8,844 06:47
118 4 LEBEURRE Nicolas 03:20:28 SEM 54 01:01:59 00:57:57 . 8,829 06:48
119 84 FONTAINE Thomas 03:21:35 SEM 55 01:03:06 00:59:04 . 8,780 06:50
120 42 HEYNDRICKX Maxence 03:21:47 SEM 56 01:03:18 00:59:16 . 8,772 06:50
121 152 TAILLARDAS Flavie 03:23:28 SEF 7 01:04:59 00:30:40 Cac 8,699 06:54
122 151 TAILLARDAS Julien 03:23:28 SEM 57 01:04:59 01:00:57 Cac 8,699 06:54
123 48 DACQUIN Gerard 03:23:29 V3M 4 01:05:00 00:40:30 Boulogne athlétique club 8,699 06:54
124 56 HENRY Christophe 03:23:36 V2M 12 01:05:07 01:01:05 . 8,694 06:54
125 164 DANGER OLIVIER 03:23:38 V1M 45 01:05:09 01:05:09 TOUQUET OPALE ATHLETISME 8,692 06:54
126 18 CAULET Dominique 03:24:44 V3M 5 01:06:15 00:41:45 . 8,645 06:56
127 148 FLAHAUT Serge 03:26:13 V3M 6 01:07:44 00:43:14 Colembert 8,583 06:59
128 100 BETHEGNIES Olivier 03:26:56 V1M 46 01:08:27 01:08:27 . 8,553 07:01
129 156 LODYGA Boris 03:27:08 SEM 58 01:08:39 01:04:37 . 8,545 07:01
130 165 BARTHLEN FRANCK 03:27:29 V1M 47 01:09:00 01:09:00 PLANETE RUNNING 8,531 07:02
131 169 HOLUIGUE MAXIME 03:28:45 SEM 59 01:10:16 01:06:14 - 8,479 07:05
132 133 VALTORTA Dario 03:29:53 SEM 60 01:11:24 01:07:22 . 8,433 07:07
133 141 DULOT Pascaline 03:34:02 V1F 1 01:15:33 00:00:00 . 8,270 07:15
134 142 FLOURET Stephanie 03:34:02 V1F 2 01:15:33 00:00:00 . 8,270 07:15
135 16 VERHAMME Vincent 03:34:04 V1M 48 01:15:35 01:15:35 . 8,268 07:15
136 102 FEDJKHI Brahim 03:34:58 V2M 13 01:16:29 01:12:27 . 8,234 07:17
137 78 SMAGGHE Jose 03:35:19 V2M 14 01:16:50 01:12:48 Les cop1dabord 8,220 07:18
138 8 FOUGNIES Guillaume 03:35:20 SEM 61 01:16:51 01:12:49 Team trail opale 8,220 07:18
139 64 GOSSELIN Delphine 03:35:46 V1F 3 01:17:17 00:01:44 . 8,203 07:19
140 54 CREPY Christophe 03:36:57 SEM 62 01:18:28 01:14:26 Aslbc 8,159 07:21
141 125 FAVIER Jimmy 03:38:29 SEM 63 01:20:00 01:15:58 . 8,101 07:24
142 167 HOLLE SABRINA 03:39:59 V1F 4 01:21:30 00:05:57 . 8,046 07:27
143 67 OUINEZ Ali 03:40:02 V2M 15 01:21:33 01:17:31 . 8,044 07:28
144 130 BECQUART Christophe 03:41:12 SEM 64 01:22:43 01:18:41 Lapugnoy 8,002 07:30
145 92 BOUCKSON Philippe 03:42:43 V3M 7 01:24:14 00:59:44 M.e.v.e. saint sylvestre-cappel 7,947 07:33
146 109 MARTEL Eric 03:43:54 V2M 16 01:25:25 01:21:23 Team trail 7,905 07:35
147 1 LACHERE Sandrine 03:44:26 SEF 8 01:25:57 00:51:38 Team trail 62 7,887 07:36
148 25 BOURLET Arnaud 03:45:47 V1M 49 01:27:18 01:27:18 . 7,839 07:39
149 65 MACQUET Patrick 03:46:05 V3M 8 01:27:36 01:03:06 . 7,829 07:40
150 35 COPPIN Mathieu 03:46:06 V1M 50 01:27:37 01:27:37 . 7,828 07:40
151 58 DUBOIS Philippe 03:47:35 V2M 17 01:29:06 01:25:04 Team raidlight 7,777 07:43
152 27 CASTRIQUE Marie 03:48:05 V2F 1 01:29:36 00:00:00 . 7,760 07:44
153 52 OVION Sylvestre 03:48:22 V1M 51 01:29:53 01:29:53 Ac cappellois 7,751 07:44
154 68 LANGLOIS Frederic 03:48:25 V2M 18 01:29:56 01:25:54 Ac capellois 7,749 07:45
155 105 BATTESTI Julie 03:49:14 SEF 9 01:30:45 00:56:26 Team trail 7,721 07:46
156 118 VANDERBEKEN Yannick 03:49:49 V2M 19 01:31:20 01:27:18 Asud 7,702 07:47
157 26 CASTRIQUE Michel 03:54:00 V3M 9 01:35:31 01:11:01 . 7,564 07:56
158 85 THOREL Cyril 04:02:24 V2M 20 01:43:55 01:39:53 . 7,302 08:13
159 2 STACEY Robert 04:02:25 V2M 21 01:43:56 01:39:54 Courir a baisieux 7,301 08:13
160 17 AMEL Boumedienne 04:03:20 V2M 22 01:44:51 01:40:49 Randonneurs hersinois 7,274 08:15
161 15 DEMOULIN Steeve 04:03:21 V1M 52 01:44:52 01:44:52 . 7,273 08:15
162 93 LEFEBVRE Andre 04:12:31 V3M 10 01:54:02 01:29:32 M.e.v.e. saint sylvestre-cappel 7,009 08:34
163 3 POIRIEZ Patrick 04:16:16 V2M 23 01:57:47 01:53:45 . 6,907 08:41
164 51 VANACKER Benoit 04:16:18 V1M 53 01:57:49 01:57:49 . 6,906 08:41
165 45 DESOUTTER Laurent 04:18:01 V1M 54 01:59:32 01:59:32 Longuenesse nature aventure 6,860 08:45
166 46 DESOUTTER Delphine 04:18:02 V1F 5 01:59:33 00:44:00 Longuenesse nature aventure 6,860 08:45
167 138 HAREL Sabrina 04:41:29 SEF 10 02:23:00 01:48:41 . 6,288 09:33
168 43 DUQUESNOY Bertrand 04:41:29 SEM 65 02:23:00 02:18:58 . 6,288 09:33